{"data":{"norad_id":56552,"epoch":"2026-05-25T02:00:52.602624Z","epoch_age_seconds":70879,"freshness":"FRESH","line1":"1 56552U 23065BB  26145.08394216  .00005040  00000+0  19266-3 0  9995","line2":"2 56552  43.0025 152.3152 0002080 280.1772  79.8845 15.27562321168151","mean_motion":15.27562321,"eccentricity":0.000208,"inclination_deg":43.0025,"raan_deg":152.3152,"arg_perigee_deg":280.1772,"mean_anomaly_deg":79.8845,"bstar":0.00019266,"rev_number":16815,"period_min":94.267839694902,"perigee_km":481.67489611715,"apogee_km":484.52917155523,"semimajor_km":6861.2390338362,"source":"CELESTRAK","updated_at":"2026-05-25T13:38:18.117044Z"}}